Regional Weather Roundup
Issued by NWS

Home | Current Version | Previous Version | Text Only | Print | Product List | Glossary On
Versions: 1 2 3 4 5 6 7 8 9 10 11 12 13 14 15 16 17 18 19 20 21 22 23 24 25 26 27 28 29 30 31 32 33 34 35 36 37 38 39 40 41 42 43 44 45 46 47 48 49 50
000
ASUS44 KFWD 312101
RWRTX
NORTH TEXAS HOURLY WEATHER ROUNDUP
NATIONAL WEATHER SERVICE FORT WORTH TX
300 PM CST SAT JAN 31 2015

NOTE: "FAIR" INDICATES FEW OR NO CLOUDS BELOW 12,000 FEET WITH NO
SIGNIFICANT WEATHER AND/OR OBSTRUCTIONS TO VISIBILITY.

TXZ118-119-312200-
DALLAS/FORT WORTH METROPLEX

CITY           SKY/WX    TMP DP  RH WIND       PRES   REMARKS
DFW AIRPORT    LGT RAIN  51  40  65 SE13      30.01F VSB 1
DALLAS LOVE    CLOUDY    52  40  63 SE15      30.02F
FTW MEACHAM    LGT RAIN  49  45  86 SE10      30.00F VSB 3/4
DAL-EXECUTIVE  CLOUDY    53  43  68 SE9       30.00F
FTW-ALLIANCE   LGT RAIN  48  44  86 SE8       30.00F FOG
FTW-SPINKS     LGT RAIN  48  45  87 SE7       30.03F
ARLINGTON      LGT RAIN  51  44  77 SE8       30.01F
ADDISON        CLOUDY    52  37  58 E16G22    30.02F
MESQUITE       DRIZZLE   54  39  58 SE8       30.03F
LANCASTER      DRIZZLE   52  42  68 SE9G17    30.03F
$$

TXZ091>094-102>105-117-120-121-131>134-312200-
NORTH CENTRAL TEXAS

CITY           SKY/WX    TMP DP  RH WIND       PRES   REMARKS
SHRMAN/DENISON CLOUDY    53  40  61 SE13      30.03F
BRIDGEPORT     RAIN      46  42  87 CALM      30.04S
DENTON         LGT RAIN  50  41  71 SE8       30.01F
MCKINNEY       LGT RAIN  53  39  59 SE13      30.02F
ROCKWALL       CLOUDY    53  42  64 E7        30.02F
TERRELL        CLOUDY    58  40  51 SE10      30.04F
WAXAHACHIE     CLOUDY    51  44  75 SE8       30.03F
$$

TXZ083>090-098>101-113>116-127>130-139>142-154-155-312200-
WESTERN NORTH TEXAS

CITY           SKY/WX    TMP DP  RH WIND       PRES   REMARKS
WICHITA FALLS  LGT RAIN  44  41  89 SE10      29.97F WCI  39
WF-KICKAPOO    LGT RAIN  38  36  92 SE12      29.98F WCI  31
ABILENE        CLOUDY    50  47  89 S18       29.91F
ABILENE-DYESS  CLOUDY    50  50 100 SE16      29.90F FOG
MINERAL WELLS  LGT RAIN  45  44  97 SE9       29.99F FOG
COMANCHE       RAIN      49  49 100 SE10      29.97F
BROWNWOOD      LGT RAIN  50  48  93 SE12G17   29.96F
BRADY          LGT RAIN  52  52 100 SE12      29.92F
$$

TXZ143>147-156>162-174-175-312200-
CENTRAL TEXAS

CITY           SKY/WX    TMP DP  RH WIND       PRES   REMARKS
WACO           LGT RAIN  54  48  80 SE5       30.02F
WACO-TSTC      LGT RAIN  57  46  67 S6        30.02F
WACO-MCGREGOR  CLOUDY    54  45  71 SE5       30.03F
CORSICANA      CLOUDY    57  42  57 SE13      30.04F
MEXIA          CLOUDY    58  46  63 SE8       30.02F
HEARNE         CLOUDY    62  51  67 SE12      30.03F
TEMPLE         CLOUDY    55  48  76 SE5       30.00F
KILLEEN        LGT RAIN  50  48  93 SE3       29.99F FOG
KILLEEN-SKYLRK CLOUDY    52  45  76 CALM      29.97F
FORT HOOD      LGT RAIN  51  48  92 E5        29.99F FOG
HAMILTON       LGT RAIN  47  47 100 SE13G21   30.00F
LAMPASAS       DRIZZLE   50  49  97 SE5       29.98F
$$

TXZ095>097-106>112-122>126-135>138-148>153-164>167-312200-
EAST TEXAS

CITY           SKY/WX    TMP DP  RH WIND       PRES   REMARKS
PARIS          CLOUDY    54  32  43 SE15      30.07F
MINEOLA        CLOUDY    57  32  38 SE7       30.08F
TYLER          CLOUDY    58  37  45 SE10      30.06F
LONGVIEW       CLOUDY    57  34  41 E9        30.08F
PALESTINE      CLOUDY    57  44  61 E6        30.07F
NACOGDOCHES    CLOUDY    57  39  51 SE7       30.10F
LUFKIN         PTSUNNY   63  45  51 E13       30.09F
$$

SUPPLEMENTAL OBSERVATIONS (CENTRAL)

CITY           SKY/WX    TMP DP  RH WIND       PRES   REMARKS
$$

SUPPLEMENTAL OBSERVATIONS (WEST)

CITY           SKY/WX    TMP DP  RH WIND       PRES   REMARKS
$$

SUPPLEMENTAL OBSERVATIONS (EAST)

CITY           SKY/WX    TMP DP  RH WIND       PRES   REMARKS
$$

SUPPLEMENTAL OBSERVATIONS ARE A COLLECTION OF AUTOMATED INSTRUMENTS
THAT ARE MAINTAINED BY A VARIETY OF FEDERAL AND STATE AGENCIES.
CERTAIN ELEMENTS...SUCH AS HUMIDITY VALUES AND SUSTAINED WIND
SPEEDS...MAY BE APPROXIMATED.



USA.gov is the U.S. government's official web portal to all federal, state and local government web resources and services.